Miscellaneous Local Product
Issued by NWS North Platte, NE

Home | Current Version | Previous Version | Text Only | Print | Product List | Glossary On
Versions: 1 2 3 4 5 6 7 8 9 10 11 12 13 14 15 16 17 18 19 20 21 22 23 24 25 26 27 28 29 30 31 32 33 34 35 36 37 38 39 40 41 42 43 44 45 46 47 48 49 50
226
AXUS43 KLBF 272210
MISLBF


WESTERN AND NORTH CENTRAL NEBRASKA HOURLY WEATHER ROUNDUP
NATIONAL WEATHER SERVICE NORTH PLATTE NE
500 PM CDT WED APR 27 2016

NOTE: "FAIR" INDICATES FEW OR NO CLOUDS BELOW 12,000 FEET WITH NO
SIGNIFICANT WEATHER AND/OR OBSTRUCTIONS TO VISIBILITY.

NOTE: STATIONS NOT REPORTING VARIABLES SUCH AS SKY/WEATHER OR
PRESSURE ARE PROVIDED BY RAWS AND APRS NETWORKS AND ARE NOT UNDER
NATIONAL WEATHER SERVICE QUALITY CONTROL.

...OBSERVATIONS IN AND NEAR THE EASTERN PANHANDLE OF NEBRASKA...

CITY           SKY/WX    TMP DP  RH WIND       PRES   REMARKS
PINE RIDGE     LGT RAIN  37  33  85 N13G25    29.78R WCI  29
CHADRON        LGT RAIN  40  37  89 N15       29.79R WCI  32
ALLIANCE       LGT RAIN  43  37  79 N18       29.74S
SIDNEY         CLOUDY    47  30  51 N25G36    29.76S
CRESCENT LAKE    N/A     43  37  78 N17G26      N/A
BIG SPRINGS      N/A     50  36  58 NW13        N/A
$$

...OBSERVATIONS IN NORTHERN NEBRASKA AND FAR SOUTHERN SOUTH DAKOTA...

CITY           SKY/WX    TMP DP  RH WIND       PRES   REMARKS
WINNER         LGT RAIN  41  37  86 NE15      29.70R FOG
VALENTINE      CLOUDY    35  32  88 NW16G25   29.69F WCI  25
THEDFORD       MIX PCPN  37  35  95 NW17G26   29.72R WCI  27
AINSWORTH      CLOUDY    36  35  96 NW17      29.68R FOG     WCI  26
O`NEILL        CLOUDY    44  42  94 N18       29.59R FOG
ORD            LGT RAIN  41  40  96 NW23G30   29.56R FOG
BROKEN BOW     LGT RAIN  38  36  92 NW22G31   29.62R FOG     WCI  27
VALENTINE NWR    N/A     34  33  96 NW17G26     N/A  WCI  23
BUTTE            N/A     40  39  96 N13G20      N/A  WCI  32
HALSEY           N/A     35  34  98 NW10G20     N/A  WCI  27
CHAMBERS         N/A     43  42  95 NW13        N/A
EWING            N/A     46  45  96 N12         N/A
$$

...OBSERVATIONS IN SOUTHWEST NEBRASKA AND FAR NORTHEAST COLORADO...

CITY           SKY/WX    TMP DP  RH WIND       PRES   REMARKS
IMPERIAL       CLOUDY    47  35  63 N18G28    29.73R
OGALLALA       CLOUDY    47  35  62 N21G29    29.73S
NORTH PLATTE   LGT RAIN  41  37  86 NW22G28   29.72R
MCCOOK         CLOUDY    49  35  58 NW29G40   29.70R
LEXINGTON      LGT RAIN  40  36  83 NW26G40   29.66R WCI  30
STAPLETON        N/A     38  36  92 SW6         N/A  WCI  33
GOTHENBURG       N/A     41  35  79 NW20        N/A
CALLAWAY         N/A     37  35  93 NW26        N/A  WCI  25
$$

...OBSERVATIONS IN CENTRAL LINCOLN COUNTY AREA...

CITY           SKY/WX    TMP DP  RH WIND       PRES   REMARKS
N.P. AIRPORT   LGT RAIN  41  37  86 NW22G28   29.72R
N.P. DOWNTOWN    N/A     41  37  86 NW13G21     N/A
N.P. SOUTHEAST   N/A     40  35  84 N12G23      N/A  WCI  33
N.P. HILLCREST   N/A     40  37  89 NW22G30     N/A  WCI  30
$$

...SOME OBSERVATIONS FROM AROUND THE REGION...

CITY           SKY/WX    TMP DP  RH WIND       PRES   REMARKS
DENVER         MOSUNNY   52  28  39 NE9       29.78F
LARAMIE        MOSUNNY   33  27  78 N20       29.81F WCI  21
CHEYENNE       SUNNY     41  29  62 NW23G33   29.79F
SCOTTSBLUFF    CLOUDY    46  31  55 NW26G36   29.80R
RAPID CITY     LGT SNOW  34  33  96 N23G31    29.83R FOG     WCI  22
BISMARCK       CLOUDY    49  27  42 E18G25    29.89F
PIERRE         LGT RAIN  39  36  89 NE26      29.75S WCI  28
SIOUX FALLS    CLOUDY    43  39  86 E20G31    29.65S
OMAHA          TSTM      56  54  93 E18       29.51R FOG
GRAND ISLAND   LGT RAIN  43  41  93 NW32G41   29.49R FOG
KANSAS CITY    CLOUDY    61  55  81 W14       29.54R
WICHITA        PTSUNNY   65  45  48 W15       29.66R
OKLAHOMA CITY  MOSUNNY   72  50  45 W14       29.71S
DALLAS         MOSUNNY   81  45  28 W8        29.71S
AMARILLO       SUNNY     67  34  29 MISG      29.79F
DODGE CITY     MOSUNNY   61  35  37 NW21G26   29.72S
HAYS           CLOUDY    55  36  47 NW24G39   29.69R
GOODLAND       MOSUNNY   55  33  43 N23G30    29.72F
$$




USA.gov is the U.S. government's official web portal to all federal, state and local government web resources and services.